Location: Ciserano
(45.5833°N, 9.6000°E)
Time: 08:41:49
(UTC+00:00)

Cosmos 1743 Rocket - Pass Details

Date: 29 November 2020
Orbit: 603 x 634 km, 82.6° (Epoch: 25 January)

Event Time Altitude Azimuth Distance (km) Brightness Sun altitude
Rises 04:53:19 0° 186° (S) 2,897 7.1 -18.0°
Reaches altitude 10° 04:55:32 10° 187° (S) 1,999 6.2 -17.7°
Maximum altitude 04:59:58 88° 101° (ESE) 638 3.6 -16.9°
Drops below altitude 10° 05:04:29 10° 9° (N) 2,027 6.1 -16.1°
Sets 05:06:44 0° 9° (N) 2,941 7.0 -15.8°
